�������l�o���
Date,Time,MP-1(��Sv/h),MP-2(��Sv/h),MP-3(��Sv/h),MP-4(��Sv/h),MP-5(��Sv/h),MP-6(��Sv/h),MP-7(��Sv/h),MP-8(��Sv/h),����,����(m/s),���J
2021/02/22,00:00,0.660,0.953,0.605,1.195,0.840,0.382,0.669,0.624,���쐼,4.5,��
2021/02/22,00:10,0.659,0.951,0.605,1.194,0.840,0.380,0.671,0.626,�쐼,2.3,��
2021/02/22,00:20,0.658,0.953,0.604,1.196,0.841,0.380,0.670,0.625,���쐼,2.0,��
2021/02/22,00:30,0.659,0.951,0.605,1.195,0.840,0.381,0.669,0.626,��쐼,2.2,��
2021/02/22,00:40,0.657,0.950,0.604,1.195,0.842,0.381,0.668,0.625,��쐼,2.3,��
2021/02/22,00:50,0.656,0.952,0.604,1.196,0.840,0.381,0.669,0.623,��,2.6,��
2021/02/22,01:00,0.658,0.952,0.604,1.196,0.841,0.381,0.668,0.625,��쐼,2.3,��
2021/02/22,01:10,0.658,0.948,0.604,1.193,0.842,0.380,0.669,0.626,��쐼,2.2,��
2021/02/22,01:20,0.656,0.950,0.604,1.194,0.840,0.381,0.668,0.624,��쐼,2.3,��
2021/02/22,01:30,0.658,0.952,0.605,1.195,0.840,0.382,0.668,0.625,�쐼,2.8,��
2021/02/22,01:40,0.659,0.951,0.605,1.196,0.841,0.381,0.670,0.624,���쐼,4.1,��
2021/02/22,01:50,0.658,0.951,0.603,1.195,0.841,0.381,0.669,0.625,���쐼,4.6,��
2021/02/22,02:00,0.657,0.950,0.604,1.197,0.840,0.381,0.668,0.623,�쐼,4.5,��
2021/02/22,02:10,0.657,0.952,0.604,1.193,0.840,0.381,0.669,0.625,�쐼,5.4,��
2021/02/22,02:20,0.657,0.950,0.604,1.197,0.840,0.381,0.670,0.625,��쐼,5.5,��
2021/02/22,02:30,0.657,0.953,0.603,1.197,0.843,0.379,0.670,0.625,��쐼,5.0,��
2021/02/22,02:40,0.657,0.951,0.604,1.197,0.842,0.381,0.670,0.626,��쐼,4.8,��
2021/02/22,02:50,0.658,0.952,0.604,1.195,0.841,0.381,0.669,0.624,��쐼,4.8,��
2021/02/22,03:00,0.656,0.949,0.603,1.195,0.842,0.381,0.670,0.624,��쐼,5.0,��
2021/02/22,03:10,0.656,0.951,0.604,1.196,0.842,0.380,0.670,0.624,��,5.3,��
2021/02/22,03:20,0.658,0.952,0.606,1.197,0.841,0.383,0.669,0.625,��,4.7,��
2021/02/22,03:30,0.658,0.951,0.602,1.194,0.841,0.381,0.669,0.625,��,4.8,��
2021/02/22,03:40,0.656,0.950,0.603,1.195,0.841,0.382,0.669,0.625,��,4.5,��
2021/02/22,03:50,0.657,0.947,0.603,1.195,0.840,0.380,0.669,0.624,��,4.7,��
2021/02/22,04:00,0.656,0.951,0.603,1.196,0.840,0.382,0.668,0.624,��,5.4,��
2021/02/22,04:10,0.656,0.950,0.603,1.195,0.842,0.380,0.669,0.625,��,6.8,��
2021/02/22,04:20,0.657,0.950,0.605,1.195,0.840,0.380,0.669,0.624,��,6.8,��
2021/02/22,04:30,0.657,0.949,0.604,1.196,0.841,0.381,0.669,0.625,��,7.3,��
2021/02/22,04:40,0.657,0.949,0.604,1.194,0.840,0.380,0.669,0.624,��,8.3,��
2021/02/22,04:50,0.658,0.949,0.603,1.194,0.840,0.381,0.669,0.625,��,8.7,��
2021/02/22,05:00,0.657,0.948,0.603,1.195,0.840,0.380,0.669,0.624,��,8.7,��
2021/02/22,05:10,0.657,0.950,0.604,1.194,0.842,0.380,0.669,0.626,��,9.2,��
2021/02/22,05:20,0.657,0.949,0.604,1.195,0.841,0.381,0.669,0.626,��,9.0,��
2021/02/22,05:30,0.656,0.951,0.606,1.196,0.839,0.380,0.670,0.624,��,9.1,��
2021/02/22,05:40,0.657,0.949,0.604,1.196,0.842,0.380,0.670,0.626,��,9.5,��
2021/02/22,05:50,0.658,0.951,0.605,1.194,0.841,0.381,0.668,0.624,��,9.5,��
2021/02/22,06:00,0.657,0.952,0.604,1.196,0.839,0.379,0.669,0.625,��,10.6,��
2021/02/22,06:10,0.658,0.949,0.605,1.196,0.839,0.381,0.670,0.625,��,10.2,��
2021/02/22,06:20,0.659,0.952,0.604,1.197,0.842,0.381,0.667,0.624,��,9.4,��
2021/02/22,06:30,0.658,0.952,0.603,1.196,0.840,0.380,0.669,0.624,��,7.9,��
2021/02/22,06:40,0.660,0.951,0.604,1.195,0.841,0.380,0.670,0.625,��,6.2,��
2021/02/22,06:50,0.659,0.951,0.604,1.196,0.841,0.380,0.672,0.625,��,5.6,��
2021/02/22,07:00,0.658,0.948,0.604,1.194,0.841,0.379,0.668,0.626,��,5.4,��
2021/02/22,07:10,0.658,0.945,0.604,1.195,0.840,0.381,0.669,0.625,��,4.8,��
2021/02/22,07:20,0.659,0.952,0.605,1.196,0.841,0.380,0.671,0.624,��,3.9,��
2021/02/22,07:30,0.658,0.952,0.604,1.196,0.842,0.381,0.669,0.624,��,2.8,��
2021/02/22,07:40,0.658,0.952,0.603,1.196,0.840,0.381,0.669,0.626,��,3.3,��
2021/02/22,07:50,0.658,0.951,0.605,1.195,0.839,0.380,0.670,0.625,��,2.5,��
2021/02/22,08:00,0.658,0.949,0.604,1.196,0.841,0.383,0.670,0.624,��,3.7,��
2021/02/22,08:10,0.658,0.951,0.604,1.194,0.841,0.381,0.671,0.624,��,4.4,��
2021/02/22,08:20,0.658,0.950,0.605,1.196,0.841,0.380,0.670,0.625,��,4.8,��
2021/02/22,08:30,0.661,0.951,0.605,1.193,0.842,0.381,0.670,0.624,��,4.9,��
2021/02/22,08:40,0.658,0.949,0.603,1.196,0.841,0.380,0.673,0.626,��,5.2,��
2021/02/22,08:50,0.659,0.949,0.606,1.197,0.842,0.381,0.670,0.626,��,3.6,��
2021/02/22,09:00,0.660,0.945,0.605,1.198,0.843,0.382,0.669,0.625,��,3.6,��
2021/02/22,09:10,0.661,0.949,0.605,1.197,0.842,0.382,0.668,0.624,��,3.6,��
2021/02/22,09:20,0.660,0.947,0.608,1.196,0.843,0.382,0.669,0.626,��쓌,3.5,��
2021/02/22,09:30,0.659,0.949,0.605,1.196,0.840,0.381,0.669,0.627,��쓌,3.8,��
2021/02/22,09:40,0.658,0.949,0.605,1.195,0.841,0.381,0.669,0.627,��쓌,3.5,��
2021/02/22,09:50,0.658,0.949,0.606,1.194,0.844,0.382,0.669,0.626,��,2.9,��
2021/02/22,10:00,0.660,0.947,0.605,1.197,0.843,0.382,0.668,0.624,��쓌,2.3,��
2021/02/22,10:10,0.657,0.951,0.605,1.197,0.841,0.381,0.667,0.624,��쓌,2.3,��
2021/02/22,10:20,0.656,0.951,0.606,1.196,0.841,0.380,0.670,0.626,��쓌,2.6,��
2021/02/22,10:30,0.658,0.949,0.605,1.197,0.841,0.380,0.670,0.626,��쓌,1.9,��
2021/02/22,10:40,0.656,0.951,0.605,1.195,0.840,0.381,0.669,0.624,�쓌,2.8,��
2021/02/22,10:50,0.657,0.952,0.602,1.198,0.841,0.381,0.669,0.624,��쓌,4.2,��
2021/02/22,11:00,0.657,0.952,0.604,1.198,0.841,0.381,0.669,0.625,��쓌,4.9,��
2021/02/22,11:10,0.659,0.952,0.604,1.197,0.841,0.381,0.670,0.625,��쓌,6.1,��
2021/02/22,11:20,0.657,0.951,0.604,1.199,0.841,0.381,0.670,0.624,��,5.6,��
2021/02/22,11:30,0.657,0.953,0.605,1.197,0.840,0.380,0.671,0.625,��,5.2,��
2021/02/22,11:40,0.658,0.955,0.603,1.199,0.842,0.381,0.670,0.623,��,5.6,��
2021/02/22,11:50,0.659,0.952,0.605,1.198,0.839,0.381,0.671,0.625,��쓌,5.1,��
2021/02/22,12:00,0.658,0.954,0.604,1.197,0.842,0.381,0.670,0.624,�쓌,1.4,��
2021/02/22,12:10,0.657,0.955,0.605,1.197,0.842,0.381,0.671,0.624,�쓌,1.2,��
2021/02/22,12:20,0.660,0.955,0.604,1.198,0.843,0.381,0.672,0.624,�쓌,1.9,��
2021/02/22,12:30,0.658,0.956,0.605,1.196,0.844,0.381,0.669,0.625,�쓌,3.8,��
2021/02/22,12:40,0.657,0.954,0.606,1.198,0.842,0.380,0.668,0.624,�쓌,4.4,��
2021/02/22,12:50,0.655,0.953,0.605,1.198,0.842,0.381,0.671,0.624,��쓌,5.9,��
2021/02/22,13:00,0.658,0.954,0.605,1.198,0.843,0.381,0.670,0.625,��쓌,5.6,��
2021/02/22,13:10,0.657,0.951,0.604,1.198,0.842,0.380,0.670,0.624,��쓌,6.6,��
2021/02/22,13:20,0.658,0.953,0.603,1.197,0.842,0.380,0.670,0.626,�쓌,6.3,��
2021/02/22,13:30,0.658,0.952,0.604,1.198,0.843,0.380,0.671,0.625,��쓌,6.5,��
2021/02/22,13:40,0.658,0.954,0.605,1.200,0.841,0.380,0.671,0.624,��쓌,6.1,��
2021/02/22,13:50,0.658,0.951,0.604,1.199,0.843,0.381,0.671,0.624,��쓌,4.9,��
2021/02/22,14:00,0.658,0.953,0.604,1.199,0.842,0.379,0.670,0.623,��쓌,4.3,��
2021/02/22,14:10,0.658,0.955,0.604,1.198,0.843,0.381,0.672,0.625,��쓌,6.2,��
2021/02/22,14:20,0.657,0.954,0.604,1.201,0.842,0.380,0.671,0.623,��쓌,5.3,��
2021/02/22,14:30,0.657,0.955,0.604,1.201,0.842,0.380,0.669,0.624,��쓌,4.4,��
2021/02/22,14:40,0.657,0.955,0.605,1.200,0.842,0.380,0.669,0.623,��쓌,4.6,��
2021/02/22,14:50,0.659,0.955,0.606,1.198,0.842,0.381,0.670,0.623,��쓌,3.8,��
2021/02/22,15:00,0.659,0.954,0.604,1.197,0.845,0.380,0.671,0.623,��쓌,3.3,��
2021/02/22,15:10,0.657,0.955,0.606,1.199,0.842,0.380,0.670,0.624,��쓌,3.8,��
2021/02/22,15:20,0.654,0.954,0.606,1.200,0.844,0.380,0.670,0.624,��쓌,3.5,��
2021/02/22,15:30,0.657,0.954,0.605,1.199,0.842,0.382,0.669,0.625,��쓌,2.6,��
2021/02/22,15:40,0.657,0.954,0.604,1.198,0.843,0.380,0.670,0.622,��쓌,3.4,��
2021/02/22,15:50,0.658,0.955,0.604,1.199,0.844,0.382,0.668,0.625,��쓌,3.5,��
2021/02/22,16:00,0.658,0.956,0.605,1.196,0.843,0.382,0.670,0.622,��쓌,4.0,��
2021/02/22,16:10,0.657,0.956,0.606,1.196,0.843,0.382,0.669,0.624,��쓌,3.5,��
2021/02/22,16:20,0.657,0.957,0.605,1.198,0.843,0.382,0.669,0.625,��쓌,2.5,��
2021/02/22,16:30,0.658,0.954,0.605,1.200,0.843,0.380,0.671,0.626,��쓌,1.7,��
2021/02/22,16:40,0.658,0.954,0.606,1.197,0.842,0.382,0.671,0.628,��쐼,0.9,��
2021/02/22,16:50,0.656,0.957,0.606,1.198,0.840,0.384,0.670,0.629,��,1.1,��
2021/02/22,17:00,0.656,0.959,0.605,1.197,0.841,0.382,0.671,0.627,�k��,3.5,��
2021/02/22,17:10,0.656,0.958,0.605,1.200,0.844,0.382,0.672,0.628,�k��,4.8,��
2021/02/22,17:20,0.658,0.956,0.606,1.199,0.842,0.383,0.670,0.625,���k��,4.3,��
2021/02/22,17:30,0.659,0.957,0.606,1.196,0.843,0.383,0.670,0.625,���k��,4.4,��
2021/02/22,17:40,0.660,0.958,0.606,1.197,0.846,0.384,0.671,0.628,���k��,5.0,��
2021/02/22,17:50,0.661,0.958,0.609,1.200,0.843,0.383,0.673,0.627,���k��,5.0,��
2021/02/22,18:00,0.661,0.955,0.608,1.199,0.847,0.383,0.672,0.626,��,4.9,��
2021/02/22,18:10,0.662,0.957,0.610,1.198,0.843,0.383,0.669,0.627,���k��,5.7,��
2021/02/22,18:20,0.658,0.956,0.608,1.199,0.845,0.382,0.671,0.626,���k��,4.8,��
2021/02/22,18:30,0.661,0.958,0.606,1.197,0.843,0.381,0.671,0.626,�k��,4.5,��
2021/02/22,18:40,0.660,0.957,0.607,1.200,0.847,0.384,0.671,0.626,�k��,4.7,��
2021/02/22,18:50,0.661,0.956,0.608,1.200,0.844,0.383,0.670,0.626,�k��,5.0,��
2021/02/22,19:00,0.658,0.956,0.605,1.198,0.844,0.382,0.670,0.628,�k��,4.9,��
2021/02/22,19:10,0.660,0.955,0.609,1.196,0.846,0.383,0.672,0.626,�k��,4.8,��
2021/02/22,19:20,0.661,0.955,0.608,1.197,0.843,0.383,0.670,0.625,�k��,4.7,��
2021/02/22,19:30,0.660,0.955,0.607,1.200,0.845,0.383,0.671,0.626,�k��,4.4,��
2021/02/22,19:40,0.661,0.954,0.605,1.197,0.845,0.382,0.672,0.627,�k��,4.6,��
2021/02/22,19:50,0.659,0.955,0.608,1.199,0.844,0.383,0.670,0.626,�k��,5.5,��
2021/02/22,20:00,0.658,0.955,0.607,1.199,0.844,0.382,0.672,0.625,���k��,4.5,��
2021/02/22,20:10,0.658,0.958,0.607,1.199,0.847,0.382,0.672,0.627,���k��,4.5,��
2021/02/22,20:20,0.660,0.956,0.606,1.198,0.845,0.383,0.672,0.625,���k��,6.4,��
2021/02/22,20:30,0.659,0.958,0.607,1.201,0.844,0.384,0.671,0.626,���k��,6.1,��
2021/02/22,20:40,0.659,0.958,0.605,1.198,0.845,0.382,0.673,0.626,��,6.4,��
2021/02/22,20:50,0.658,0.955,0.606,1.199,0.845,0.381,0.673,0.625,���k��,6.3,��
2021/02/22,21:00,0.661,0.956,0.607,1.199,0.845,0.382,0.674,0.627,��,7.4,��
2021/02/22,21:10,0.660,0.956,0.606,1.200,0.845,0.383,0.671,0.626,��,9.1,��
2021/02/22,21:20,0.659,0.954,0.607,1.200,0.844,0.384,0.672,0.626,��,10.0,��
2021/02/22,21:30,0.660,0.953,0.606,1.198,0.846,0.383,0.672,0.627,��,10.0,��
2021/02/22,21:40,0.660,0.953,0.606,1.200,0.843,0.384,0.672,0.628,��,9.1,��
2021/02/22,21:50,0.662,0.954,0.605,1.199,0.845,0.383,0.670,0.625,���k��,8.3,��
2021/02/22,22:00,0.660,0.954,0.608,1.198,0.844,0.383,0.669,0.627,��,7.0,��
2021/02/22,22:10,0.661,0.957,0.606,1.202,0.846,0.383,0.670,0.627,��,9.6,��
2021/02/22,22:20,0.660,0.955,0.606,1.199,0.847,0.384,0.670,0.628,��,8.9,��
2021/02/22,22:30,0.659,0.955,0.607,1.201,0.845,0.382,0.669,0.626,��,9.6,��
2021/02/22,22:40,0.661,0.956,0.609,1.200,0.845,0.383,0.671,0.626,��,10.3,��
2021/02/22,22:50,0.661,0.956,0.606,1.199,0.846,0.382,0.670,0.627,���쐼,9.2,��
2021/02/22,23:00,0.661,0.957,0.607,1.201,0.846,0.385,0.672,0.625,���쐼,7.8,��
2021/02/22,23:10,0.659,0.958,0.607,1.200,0.845,0.383,0.671,0.626,���쐼,6.7,��
2021/02/22,23:20,0.660,0.956,0.607,1.199,0.847,0.384,0.671,0.628,���쐼,6.4,��
2021/02/22,23:30,0.660,0.954,0.606,1.201,0.847,0.382,0.673,0.627,�쐼,6.3,��
2021/02/22,23:40,0.660,0.956,0.608,1.200,0.844,0.382,0.673,0.626,���쐼,7.4,��
2021/02/22,23:50,0.660,0.957,0.607,1.202,0.845,0.383,0.674,0.626,���쐼,7.9,��
